Weather reports worldwide

Advertisment
Herstmonceux, United Kingdom (3882): temperature & dewpoint: 11.08.2018 13:00:00 - 17.08.2018 13:00:00 (BST)Herstmonceux, United Kingdom (3882): temperature -20cm & temperature -100cm: 11.08.2018 13:00:00 - 17.08.2018 13:00:00 (BST)Herstmonceux, United Kingdom (3882): wind speed: 11.08.2018 13:00:00 - 17.08.2018 13:00:00 (BST)Herstmonceux, United Kingdom (3882): wind direction: 11.08.2018 13:00:00 - 17.08.2018 13:00:00 (BST)Herstmonceux, United Kingdom (3882): reduced air pressure: 11.08.2018 13:00:00 - 17.08.2018 13:00:00 (BST)Herstmonceux, United Kingdom (3882): visibility: 11.08.2018 13:00:00 - 17.08.2018 13:00:00 (BST)Herstmonceux, United Kingdom (3882): sunshine duration: 11.08.2018 13:00:00 - 17.08.2018 13:00:00 (BST)Herstmonceux, United Kingdom (3882): precipitation: 11.08.2018 13:00:00 - 17.08.2018 13:00:00 (BST)
Date & Time tt [°C] td [°C] tt -20cm [°C] tt -100cm [°C] ff [km/h] ff [kn] dd ppp [hPa] vv [km] sd [min] rr [mm]
17.08.2018 13:00:00 19,2 12,1 - - 11 6 W 1021,1 30 18 0,0
17.08.2018 12:00:00 19,0 10,8 - - 9 5 W 1020,8 35 54 0,0
17.08.2018 11:00:00 18,9 12,8 - - 9 5 W 1021,0 35 60 0,0
17.08.2018 10:00:00 17,3 12,8 18,7 18,7 8 4 WNW 1020,7 30 60 0,0
17.08.2018 09:00:00 15,0 12,6 - - 8 4 NW 1020,3 30 54 0,0
17.08.2018 08:00:00 13,2 12,9 - - 8 4 N 1019,8 29 0 0,0
17.08.2018 07:00:00 10,7 10,1 - - 2 1 NW 1019,3 13 0 0,0
17.08.2018 06:00:00 10,9 10,3 - - 8 4 NNW 1018,8 21 0 0,0
17.08.2018 05:00:00 10,5 9,9 - - 4 2 NNW 1018,1 22 0 0,0
17.08.2018 04:00:00 11,6 10,6 - - 5 3 NNW 1017,9 24 0 0,0
17.08.2018 03:00:00 12,3 11,6 - - 8 4 NNW 1017,6 18 0 0,0
17.08.2018 02:00:00 12,9 12,3 - - 8 4 NW 1017,3 12 0 0,0
17.08.2018 01:00:00 13,5 12,9 - - 8 4 NNW 1017,3 12 - 0,0
17.08.2018 00:00:00 13,6 13,3 - - 5 3 NW 1017,1 12 0 0,0
16.08.2018 23:00:00 13,3 12,9 - - 2 1 W 1016,8 7 0 0,0
16.08.2018 22:00:00 13,4 12,8 - - 4 2 W 1016,3 8 0 0,0
16.08.2018 21:00:00 14,6 13,4 - - 2 1 WNW 1015,9 7 0 0,0
16.08.2018 20:00:00 16,0 14,5 - - 0 0 N 1015,5 14 12 0,0
16.08.2018 19:00:00 15,9 14,6 - - 2 1 S 1015,3 15 12 0,0
16.08.2018 18:00:00 15,2 14,0 - - 2 1 WSW 1015,1 21 0 0,0
16.08.2018 17:00:00 14,9 13,6 - - 4 2 WNW 1015,3 13 0 0,8
16.08.2018 16:00:00 16,3 15,7 - - 8 4 SW 1014,9 4,0 0 3,2
16.08.2018 15:00:00 17,0 15,8 - - 8 4 WSW 1014,6 30 0 0,2
16.08.2018 14:00:00 17,1 16,2 - - 11 6 W 1014,7 12 0 0,0
16.08.2018 13:00:00 17,3 16,7 - - 13 7 WSW 1014,6 2,8 0 0,4
16.08.2018 12:00:00 17,5 16,4 - - 13 7 WSW 1014,2 3,2 0 0,0
16.08.2018 11:00:00 18,9 15,5 - - 18 10 SW 1013,9 27 0 0,0
16.08.2018 10:00:00 18,6 15,9 19,7 18,7 16 9 SW 1014,0 27 0 0,0
16.08.2018 09:00:00 18,1 16,0 - - 15 8 SW 1014,2 26 0 0,0
16.08.2018 08:00:00 17,8 15,6 - - 13 7 SW 1014,6 16 0 0,0
16.08.2018 07:00:00 17,8 14,8 - - 13 7 WSW 1014,8 30 0 0,0
16.08.2018 06:00:00 17,7 15,1 - - 11 6 WSW 1014,8 35 0 0,0
16.08.2018 05:00:00 17,5 15,8 - - 13 7 SW 1015,1 17 0 0,0
16.08.2018 04:00:00 17,3 15,6 - - 11 6 SW 1015,5 21 0 0,0
16.08.2018 03:00:00 17,5 16,3 - - 13 7 WSW 1015,7 17 0 0,0
16.08.2018 02:00:00 16,9 15,9 - - 9 5 WSW 1016,1 15 0 0,0
16.08.2018 01:00:00 16,6 15,7 - - 5 3 WSW 1016,9 14 - 0,0
16.08.2018 00:00:00 16,2 15,2 - - 8 4 WSW 1017,2 13 0 0,0
15.08.2018 23:00:00 15,3 14,4 - - 8 4 SW 1017,5 10 0 0,0
15.08.2018 22:00:00 16,5 15,0 - - 9 5 WSW 1017,8 17 0 0,0
15.08.2018 21:00:00 16,9 15,1 - - 8 4 WSW 1017,8 18 0 0,0
15.08.2018 20:00:00 17,8 15,1 - - 11 6 WSW 1017,6 30 18 0,0
15.08.2018 19:00:00 19,4 14,7 - - 15 8 WSW 1017,6 30 48 0,0
15.08.2018 18:00:00 20,5 14,4 - - 15 8 WSW 1017,8 24 60 0,0
15.08.2018 17:00:00 20,8 14,9 - - 15 8 WSW 1018,2 30 54 0,0
15.08.2018 16:00:00 20,9 16,5 - - 13 7 WSW 1018,5 25 6 0,0
15.08.2018 15:00:00 19,9 15,1 - - 13 7 WSW 1018,9 35 0 0,0
15.08.2018 14:00:00 19,6 15,7 - - 15 8 WSW 1019,1 30 0 0,0
15.08.2018 13:00:00 19,5 15,4 - - 11 6 WSW 1019,2 35 0 0,0
15.08.2018 12:00:00 19,4 14,5 - - 13 7 WSW 1019,3 35 0 0,0
15.08.2018 11:00:00 19,5 14,0 - - 13 7 W 1019,4 35 6 0,0
15.08.2018 10:00:00 18,4 13,9 19,7 18,7 11 6 WSW 1019,6 29 6 0,0
15.08.2018 09:00:00 17,1 13,6 - - 11 6 W 1019,7 30 0 0,0
15.08.2018 08:00:00 17,0 14,3 - - 11 6 WNW 1019,1 13 0 0,0
15.08.2018 07:00:00 16,4 14,3 - - 5 3 W 1018,9 19 0 0,0
15.08.2018 06:00:00 16,3 14,2 - - 5 3 W 1018,5 18 0 0,0
15.08.2018 05:00:00 15,9 14,0 - - 4 2 WSW 1018,5 20 0 0,0
15.08.2018 04:00:00 15,8 13,8 - - 5 3 W 1018,9 21 0 0,0
15.08.2018 03:00:00 14,5 13,2 - - 4 2 WSW 1018,7 19 0 0,0
15.08.2018 02:00:00 15,2 13,8 - - 4 2 W 1018,6 17 0 0,0
15.08.2018 01:00:00 16,3 15,4 - - 5 3 W 1018,7 17 - 0,0
15.08.2018 00:00:00 17,0 16,3 - - 5 3 W 1018,7 10 0 0,0
14.08.2018 23:00:00 17,7 17,0 - - 8 4 WSW 1018,4 10 0 0,0
14.08.2018 22:00:00 17,8 17,0 - - 5 3 WSW 1018,5 11 0 0,0
14.08.2018 21:00:00 17,9 16,7 - - 8 4 W 1018,3 14 0 0,0
14.08.2018 20:00:00 18,5 16,5 - - 11 6 WSW 1017,8 18 30 0,0
14.08.2018 19:00:00 19,8 16,4 - - 13 7 W 1017,5 30 54 0,0
14.08.2018 18:00:00 20,0 16,3 - - 16 9 W 1017,7 30 42 0,0
14.08.2018 17:00:00 21,2 15,5 - - 16 9 WSW 1017,7 30 48 0,0
14.08.2018 16:00:00 20,5 15,1 - - 13 7 WSW 1017,7 40 30 0,0
14.08.2018 15:00:00 21,5 15,1 - - 13 7 W 1017,6 30 24 0,0
14.08.2018 14:00:00 19,7 15,7 - - 9 5 WSW 1017,8 35 12 0,0
14.08.2018 13:00:00 19,2 15,2 - - 11 6 WSW 1017,6 30 6 0,0
14.08.2018 12:00:00 20,0 14,4 - - 11 6 WSW 1017,3 28 30 0,0
14.08.2018 11:00:00 18,8 13,8 - - 9 5 W 1017,1 40 6 0,0
14.08.2018 10:00:00 17,7 14,4 19,7 18,7 5 3 W 1016,8 30 0 0,0
14.08.2018 09:00:00 16,8 13,9 - - 8 4 WNW 1016,6 45 42 0,0
14.08.2018 08:00:00 15,3 14,1 - - 5 3 WNW 1016,2 40 6 0,0
14.08.2018 07:00:00 13,9 13,4 - - 5 3 WNW 1015,6 29 0 0,0
14.08.2018 06:00:00 14,0 13,6 - - 8 4 NW 1014,8 20 0 0,0
14.08.2018 05:00:00 14,4 13,9 - - 5 3 W 1014,2 13 0 0,0
14.08.2018 04:00:00 14,5 13,8 - - 5 3 W 1013,8 26 0 0,0
14.08.2018 03:00:00 14,9 13,5 - - 5 3 W 1013,6 40 0 0,0
14.08.2018 02:00:00 16,3 14,2 - - 5 3 WNW 1012,9 35 0 0,0
14.08.2018 01:00:00 16,6 15,1 - - 8 4 NW 1012,3 23 - 0,0
14.08.2018 00:00:00 16,9 16,0 - - 8 4 NW 1011,7 17 0 0,0
13.08.2018 23:00:00 17,5 16,8 - - 5 3 WNW 1011,1 11 0 0,0
13.08.2018 22:00:00 17,7 16,9 - - 8 4 W 1010,5 11 0 0,0
13.08.2018 21:00:00 18,1 16,7 - - 13 7 W 1010,1 12 0 0,0
13.08.2018 20:00:00 19,2 16,5 - - 11 6 W 1009,4 18 60 0,0
13.08.2018 19:00:00 20,8 16,8 - - 13 7 W 1008,7 26 54 0,0
13.08.2018 18:00:00 20,7 16,3 - - 16 9 WSW 1008,3 22 54 0,0
13.08.2018 17:00:00 21,2 16,1 - - 18 10 W 1008,0 26 48 0,0
13.08.2018 16:00:00 21,1 16,4 - - 18 10 WSW 1007,8 18 42 0,0
13.08.2018 15:00:00 20,5 16,0 - - 16 9 W 1007,9 30 36 0,0
13.08.2018 14:00:00 18,5 15,1 - - 16 9 W 1007,9 45 12 0,0
13.08.2018 13:00:00 20,2 15,1 - - 11 6 W 1007,4 40 24 0,0
13.08.2018 12:00:00 19,5 16,1 - - 9 5 WNW 1007,3 40 12 0,0
13.08.2018 11:00:00 19,3 16,2 - - 8 4 W 1006,9 45 6 0,0
13.08.2018 10:00:00 18,2 16,2 19,2 18,7 5 3 W 1006,6 30 18 0,0
13.08.2018 09:00:00 16,5 16,3 - - 5 3 WNW 1006,5 18 12 0,0
13.08.2018 08:00:00 15,7 15,6 - - 4 2 WNW 1006,4 14 0 0,0
13.08.2018 07:00:00 15,7 15,5 - - 2 1 SW 1005,9 7 0 5,8
13.08.2018 06:00:00 15,7 15,6 - - 2 1 WNW 1005,6 7 0 0,0
13.08.2018 05:00:00 15,7 15,6 - - 2 1 WSW 1005,5 4,6 0 0,0
13.08.2018 04:00:00 16,0 15,8 - - 2 1 WSW 1005,7 4,9 0 0,0
13.08.2018 03:00:00 15,3 15,0 - - 0 0 N 1005,8 0,5 0 0,0
13.08.2018 02:00:00 16,3 15,9 - - 2 1 E 1006,2 3,1 0 0,0
13.08.2018 01:00:00 16,6 16,3 - - 4 2 ENE 1006,7 5 - 0,0
13.08.2018 00:00:00 16,7 16,4 - - 5 3 SSW 1007,0 11 0 0,0
12.08.2018 23:00:00 16,6 16,2 - - 4 2 S 1007,6 9 0 0,0
12.08.2018 22:00:00 16,5 15,9 - - 4 2 WSW 1008,0 3,8 0 2,8
12.08.2018 21:00:00 17,5 14,9 - - 8 4 WSW 1008,1 7 0 0,2
12.08.2018 20:00:00 18,6 13,9 - - 8 4 WSW 1008,2 45 0 0,0
12.08.2018 19:00:00 19,1 14,2 - - 8 4 SW 1008,5 40 0 0,0
12.08.2018 18:00:00 19,5 13,3 - - 13 7 SW 1009,2 45 0 0,0
12.08.2018 17:00:00 20,4 13,2 - - 13 7 WSW 1009,5 50 0 0,0
12.08.2018 16:00:00 20,8 13,4 - - 8 4 WSW 1009,7 30 0 0,0
12.08.2018 15:00:00 19,9 13,5 - - 9 5 SW 1010,9 35 0 0,0
12.08.2018 14:00:00 20,6 13,8 - - 9 5 WSW 1011,3 28 0 0,0
12.08.2018 13:00:00 20,8 13,9 - - 15 8 SW 1011,4 45 0 0,0
12.08.2018 12:00:00 21,8 14,1 - - 15 8 SW 1011,8 40 24 0,0
12.08.2018 11:00:00 22,4 15,0 - - 15 8 SSW 1012,1 50 48 0,0
12.08.2018 10:00:00 20,2 14,3 18,9 19,0 16 9 SW 1012,5 40 24 0,0
12.08.2018 09:00:00 20,4 15,7 - - 15 8 SSW 1012,7 35 42 0,0
12.08.2018 08:00:00 18,6 16,1 - - 11 6 SW 1013,2 35 0 0,0
12.08.2018 07:00:00 17,9 15,8 - - 8 4 SW 1013,7 26 0 0,0
12.08.2018 06:00:00 17,2 15,9 - - 8 4 SSW 1013,9 24 0 0,0
12.08.2018 05:00:00 16,6 15,8 - - 5 3 S 1014,3 30 0 0,0
12.08.2018 04:00:00 16,8 15,9 - - 5 3 S 1015,1 40 0 0,0
12.08.2018 03:00:00 15,9 14,9 - - 4 2 S 1015,9 26 0 0,0
12.08.2018 02:00:00 16,8 15,0 - - 5 3 SSW 1016,8 30 0 0,0
12.08.2018 01:00:00 17,1 15,4 - - 5 3 S 1017,5 45 - 0,0
12.08.2018 00:00:00 16,4 14,6 - - 5 3 SSW 1018,3 45 0 0,0
11.08.2018 23:00:00 17,2 15,2 - - 8 4 S 1019,1 45 0 0,0
11.08.2018 22:00:00 17,1 15,2 - - 5 3 S 1019,7 45 0 0,0
11.08.2018 21:00:00 17,2 15,0 - - 5 3 SSW 1020,2 30 0 0,0
11.08.2018 20:00:00 17,7 15,0 - - 5 3 SW 1020,4 35 0 0,0
11.08.2018 19:00:00 18,2 14,8 - - 9 5 SW 1020,9 50 0 0,0
11.08.2018 18:00:00 18,5 14,0 - - 11 6 SW 1021,4 29 0 0,0
11.08.2018 17:00:00 18,9 13,6 - - 13 7 SW 1021,7 35 24 0,0
11.08.2018 16:00:00 19,3 13,0 - - 13 7 SSW 1022,2 40 6 0,0
11.08.2018 15:00:00 19,1 12,5 - - 11 6 SSW 1022,8 30 6 0,0
11.08.2018 14:00:00 20,0 9,5 - - 9 5 WSW 1023,0 40 54 0,0
11.08.2018 13:00:00 19,6 8,8 - - 9 5 SW 1023,3 45 60 0,0

tt = temperature
td = dewpoint
tt -20cm = temperature -20cm
tt -100cm = temperature -100cm
ff = wind speed
dd = wind direction
ppp = reduced air pressure
vv = visibility
sd = sunshine duration
rr = precipitation

Next stations